[[[{"header":{"parameterUnit":"kt","parameterCategory":2,"dx":1,"dy":1,"la1":30.253999710083008,"la2":30.299108505249023,"lo1":-89.0895004272461,"lo2":-89.04439544677734,"nx":28,"ny":28,"refTime":"2022-10-24T21:00:00:Z","depth":0,"parameterNumber":1,"parameterNumberName":"U-component_of_WINDS"},"data":[-10.8763,-10.8952,-10.9012,-10.9255,-10.9349,-10.9524,-10.9606,-10.9718,-10.9821,-11.0037,-11.0171,-11.0249,-11.0374,-11.0548,-11.0696,-11.0727,-11.0784,-11.0809,-11.084,-11.0676,-11.0657,-11.0638,-11.0596,-11.0822,-11.0822,-11.1001,-11.1002,-11.1004,-10.864,-10.8736,-10.8882,-10.9063,-10.9188,-10.92,-10.9345,-10.9448,-10.9604,-10.9733,-10.9869,-11.0063,-11.0223,-11.0342,-11.0505,-11.0594,-11.0607,-11.0634,-11.0626,-11.0645,-11.0472,-11.0427,-11.0621,-11.0621,-11.0621,-11.0621,-11.0621,-11.0621,-10.8432,-10.8544,-10.8687,-10.8846,-10.8953,-10.9074,-10.9189,-10.9282,-10.9425,-10.9603,-10.9645,-10.9822,-10.996,-11.0185,-11.0274,-11.0413,-11.0393,-11.0439,-11.045,-11.0459,-11.0462,-11.0193,-11.0444,-11.0444,-11.0444,-11.0443,-11.0443,0,-10.8297,-10.8339,-10.8482,-10.8643,-10.8762,-10.8892,-10.9021,-10.9095,-10.9199,-10.9312,-10.9481,-10.9587,-10.9797,-10.996,-11.0126,-11.0209,-11.0228,-11.0237,-11.0269,-11.0248,-11.0211,-11.023,-10.9943,-11.0228,-11.0226,-11.0225,-11.0224,-11.0223,-10.8088,-10.8211,-10.8389,-10.8482,-10.8566,-10.8715,-10.8814,-10.8898,-10.9,-10.917,-10.9263,-10.9429,-10.9565,-10.9824,-10.9927,-11.0084,-11.0093,-11.0195,-11.0116,-11.0094,-11.0091,-11.0081,-11.0093,-11.0206,-11.0209,-11.021,-11.0212,0,-10.7965,-10.8059,-10.8268,-10.843,-10.8475,-10.8599,-10.8738,-10.8852,-10.8928,-10.9096,-10.9139,-10.9258,-10.942,-10.9508,-10.9711,-10.9751,-10.9956,-10.9964,-10.9909,-10.9914,-11.0012,-11.0,-11.0321,-11.0367,-11.0137,-11.0139,-11.0141,0,-10.7821,-10.7979,-10.8109,-10.8225,-10.8405,-10.8483,-10.8657,-10.874,-10.8859,-10.8992,-10.9029,-10.9152,-10.9244,-10.938,-10.944,-10.9623,-10.9662,-10.9702,-10.9715,-10.9696,-10.9691,-10.9746,-10.9733,-10.9744,-10.9742,-10.974,-10.9739,0,-10.7614,-10.7869,-10.8059,-10.8132,-10.8319,-10.8407,-10.8488,-10.8622,-10.8718,-10.8858,-10.8921,-10.9077,-10.9162,-10.9282,-10.9356,-10.9299,-10.9583,-10.9519,-10.9623,-10.9622,-10.9677,-10.9671,-10.9939,-10.9737,-10.9736,-10.9736,-10.9735,0,-10.7509,-10.765,-10.7912,-10.8068,-10.8131,-10.8257,-10.8415,-10.8543,-10.8681,-10.8726,-10.8836,-10.8868,-10.9037,-10.8968,-10.9201,-10.9105,-10.9186,-10.9241,-10.925,-10.9265,-10.9183,-10.9317,-10.9568,-10.9595,-10.9287,-10.9283,-10.928,0,-10.7246,-10.7535,-10.7603,-10.785,-10.7994,-10.8024,-10.8165,-10.8286,-10.8358,-10.8491,-10.857,-10.872,-10.8687,-10.8744,-10.885,-10.8936,-10.9061,-10.8922,-10.9108,-10.9114,-10.9066,-10.9299,-10.9312,-10.9504,-10.9234,-10.9238,-10.9242,0,-10.7051,-10.7277,-10.7316,-10.7401,-10.7573,-10.7694,-10.7856,-10.8021,-10.8105,-10.8237,-10.8373,-10.8587,-10.8569,-10.8665,-10.8706,-10.8811,-10.8979,-10.8777,-10.8781,-10.8807,-10.9218,-10.9229,-10.9262,-10.8984,-10.899,-10.8994,-10.9205,0,-10.6868,-10.7023,-10.7134,-10.7319,-10.7426,-10.7585,-10.7676,-10.7777,-10.7807,-10.7877,-10.808,-10.8199,-10.8365,-10.8425,-10.8453,-10.8665,-10.8642,-10.8621,-10.8554,-10.8707,-10.8779,-10.8808,-10.8441,-10.8439,-10.8438,-10.8437,0,0,-10.659,-10.6814,-10.6881,-10.704,-10.7133,-10.716,-10.7321,-10.7416,-10.7604,-10.7668,-10.7633,-10.7949,-10.8047,-10.8281,-10.8337,-10.8405,-10.845,-10.8391,-10.8635,-10.8656,-10.8677,-10.8751,-10.8781,-10.8435,-10.8435,-10.8434,-10.8434,0,-10.6539,-10.6642,-10.6801,-10.6902,-10.7054,-10.7121,-10.7159,-10.7313,-10.7365,-10.7563,-10.7579,-10.771,-10.796,-10.806,-10.8144,-10.8368,-10.8369,-10.8412,-10.8501,-10.862,-10.8643,-10.8664,-10.8741,-10.8769,-10.8431,-10.8431,-10.8431,0,-10.6361,-10.6475,-10.6562,-10.6777,-10.6875,-10.7022,-10.6977,-10.7134,-10.7244,-10.7259,-10.7454,-10.7532,-10.7674,-10.7884,-10.7982,-10.7952,-10.829,-10.8199,-10.8209,-10.822,-10.8339,-10.8366,-10.8391,-10.8064,-10.8062,-10.806,0,0,-10.6305,-10.645,-10.6595,-10.6772,-10.6834,-10.6935,-10.7021,-10.7058,-10.7186,-10.7236,-10.7334,-10.7457,-10.7603,-10.7697,-10.7838,-10.8057,-10.8091,-10.815,-10.8168,-10.8182,-10.82,-10.8322,-10.8349,-10.8054,-10.8054,-10.8054,0,0,-10.6277,-10.6452,-10.6459,-10.6676,-10.6798,-10.695,-10.7055,-10.7066,-10.7202,-10.7192,-10.726,-10.7296,-10.7494,-10.7569,-10.7476,-10.7814,-10.7748,-10.7772,-10.7757,-10.7781,-10.7798,-10.7773,-10.7441,0,0,0,0,0,-10.627,-10.6431,-10.6435,-10.6485,-10.6754,-10.6949,-10.6983,-10.7044,-10.6995,-10.7077,-10.7161,-10.7158,-10.7533,-10.7452,-10.75,-10.76,-10.7974,-10.7988,-10.8002,-10.8036,-10.8059,-10.8079,0,0,0,0,0,0,-10.629,-10.635,-10.6431,-10.6589,-10.665,-10.6943,-10.6875,-10.6896,-10.6988,-10.6985,-10.7142,-10.7163,-10.7216,-10.7432,-10.7474,-10.7568,-10.7427,-10.798,-10.7992,-10.8003,-10.8044,-10.8063,-10.8079,0,0,0,0,0,-10.6306,-10.6355,-10.6771,-10.6587,-10.664,-10.6759,-10.6869,-10.6886,-10.6958,-10.7087,-10.7108,-10.6995,-10.7217,-10.7257,-10.7457,-10.7548,-10.7398,-10.7414,-10.7988,-10.7997,-10.8006,-10.8053,0,0,0,0,0,0,-10.6318,-10.6371,-10.6783,-10.6801,-10.653,-10.6744,-10.678,-10.6877,-10.7056,-10.7078,-10.6943,-10.6938,-10.722,-10.725,-10.728,-10.7537,-10.7375,-10.7391,-10.7401,-10.7995,-10.8002,-10.8009,0,0,0,0,0,0,-10.6345,-10.6387,-10.6792,-10.6717,-10.6727,-10.673,-10.6761,-10.694,-10.7058,-10.6902,-10.6903,-10.6939,-10.7174,-10.7246,-10.727,-10.7546,-10.7357,-10.7372,-10.7383,-10.7389,-10.8001,-10.8007,0,0,0,0,0,0,-10.6364,-10.6399,-10.6712,-10.672,-10.6729,-10.694,-10.6888,-10.716,-10.6995,-10.6893,-10.6981,-10.6975,-10.7171,-10.7195,-10.7263,-10.7529,-10.7541,-10.7358,-10.7368,-10.7375,-10.738,0,0,0,0,0,0,0,-10.6379,-10.6127,-10.6674,-10.6723,-10.6731,-10.6972,-10.6977,-10.6982,-10.6993,-10.6988,-10.6983,-10.6978,-10.7272,-10.7288,-10.7305,-10.7515,0,0,-10.7356,-10.7364,0,0,0,0,0,0,0,0,-10.6114,-10.6124,-10.6675,-10.6679,-10.6682,-10.6972,-10.6976,-10.698,-10.6992,-10.6988,-10.6984,-10.698,-10.7276,-10.7289,-10.7303,0,0,0,0,0,0,0,0,0,0,0,0,0,0,0,-10.6675,-10.6678,0,-10.6973,-10.6976,-10.698,-10.6992,-10.6988,-10.6985,-10.6981,-10.728,-10.7291,-10.7302,0,0,0,0,0,0,0,0,0,0,0,0,0,0,0,0,0,0,0,0,0,0,0,0,0,0,0,0,0,0,0,0,0,0,0,0,0,0,0,0,0,0,0,0,0,0,0,0,0,0,0,0,0,0,0,0,0,0,0,0,0,0,0,0,0,0,0,0,0]}],[{"header":{"parameterUnit":"kt","parameterCategory":2,"dx":1,"dy":1,"la1":30.253999710083008,"la2":30.299108505249023,"lo1":-89.0895004272461,"lo2":-89.04439544677734,"nx":28,"ny":28,"refTime":"2022-10-24T21:00:00:Z","depth":0,"parameterNumber":2,"parameterNumberName":"V-component_of_WINDS"},"data":[9.3392,9.3541,9.359,9.3781,9.3857,9.3996,9.4061,9.4149,9.4231,9.4401,9.4507,9.4568,9.4666,9.4802,9.4918,9.4942,9.4988,9.5008,9.5033,9.4902,9.4887,9.4872,9.4842,9.5017,9.5017,9.5162,9.5163,9.5164,9.33,9.3377,9.3492,9.3635,9.3735,9.3746,9.386,9.3941,9.4064,9.4165,9.427,9.4422,9.4547,9.4639,9.4766,9.4836,9.4847,9.4867,9.4863,9.4878,9.474,9.4707,9.4857,9.4857,9.4857,9.4857,9.4857,9.4857,9.3145,9.3232,9.3346,9.3471,9.3556,9.3651,9.3741,9.3815,9.3926,9.4065,9.4097,9.4235,9.4343,9.4516,9.4584,9.4693,9.4678,9.4713,9.4723,9.4731,9.4735,9.4526,9.4716,9.4715,9.4715,9.4715,9.4715,0,9.3046,9.3081,9.3193,9.332,9.3413,9.3515,9.3615,9.3672,9.3755,9.3842,9.3973,9.4055,9.4217,9.4343,9.447,9.4533,9.455,9.4555,9.458,9.4568,9.4543,9.456,9.4335,9.4548,9.4547,9.4546,9.4545,9.4545,9.2895,9.2989,9.313,9.3202,9.3268,9.3382,9.346,9.3526,9.3605,9.3737,9.3808,9.3935,9.404,9.4237,9.4317,9.4436,9.4444,9.4522,9.4462,9.4448,9.4448,9.4443,9.4454,9.4531,9.4533,9.4535,9.4536,0,9.2807,9.2882,9.3041,9.3169,9.3204,9.3298,9.3407,9.3494,9.3554,9.3681,9.3715,9.3807,9.3931,9.3999,9.4152,9.4183,9.434,9.4344,9.4305,9.431,9.4387,9.438,9.4623,9.4659,9.4476,9.4478,9.4479,0,9.2707,9.2826,9.2931,9.3019,9.3154,9.3217,9.3348,9.3412,9.3504,9.3605,9.3635,9.3728,9.3799,9.3902,9.3948,9.4087,9.4115,9.4147,9.4158,9.4146,9.4142,9.4186,9.4178,9.4176,9.4174,9.4173,9.4172,0,9.256,9.2753,9.2897,9.2953,9.3098,9.3164,9.3227,9.333,9.3403,9.3508,9.3557,9.3674,9.3738,9.3828,9.3886,9.3843,9.4057,9.4009,9.409,9.4089,9.4132,9.4128,9.4328,9.4171,9.417,9.417,9.4169,0,9.249,9.2598,9.2793,9.2917,9.2964,9.3056,9.3178,9.3273,9.3378,9.3413,9.3496,9.3522,9.3647,9.3597,9.3771,9.37,9.3761,9.3803,9.381,9.3824,9.3765,9.387,9.4053,9.4075,9.384,9.3837,9.3835,0,9.2304,9.2519,9.2574,9.2757,9.2866,9.2893,9.2997,9.3088,9.3144,9.3244,9.3304,9.3414,9.339,9.3434,9.3511,9.3577,9.3669,9.3566,9.3707,9.3712,9.3681,9.385,9.3861,9.4006,9.38,9.3804,9.3807,0,9.2168,9.2343,9.2371,9.2438,9.2569,9.2657,9.2776,9.29,9.2964,9.3061,9.3162,9.3317,9.3307,9.3376,9.3408,9.3485,9.3609,9.3461,9.3465,9.3487,9.3787,9.3798,9.3822,9.3613,9.3617,9.3621,9.3779,0,9.205,9.2165,9.2244,9.2385,9.2464,9.258,9.2651,9.2725,9.275,9.2804,9.2952,9.3039,9.3161,9.3204,9.3226,9.338,9.3364,9.3349,9.3303,9.3413,9.3467,9.3489,9.3218,9.3217,9.3216,9.3215,0,0,9.1854,9.2019,9.2072,9.2189,9.226,9.2284,9.2402,9.2471,9.2611,9.2658,9.2634,9.2864,9.2934,9.3105,9.3145,9.3193,9.3227,9.3184,9.336,9.3375,9.339,9.3447,9.3469,9.3214,9.3214,9.3213,9.3213,0,9.1825,9.1901,9.2016,9.2092,9.2206,9.2258,9.2286,9.2401,9.2441,9.2584,9.2599,9.2694,9.2873,9.2948,9.3009,9.3166,9.317,9.3198,9.3261,9.3349,9.3366,9.3381,9.344,9.346,9.3211,9.3211,9.3211,0,9.1705,9.1792,9.1854,9.2013,9.2086,9.2194,9.2166,9.2279,9.236,9.2374,9.2515,9.2571,9.2674,9.2825,9.2895,9.2874,9.3116,9.3049,9.3056,9.3064,9.3152,9.3173,9.319,9.2954,9.2952,9.2951,0,0,9.167,9.1776,9.1886,9.2011,9.2057,9.2134,9.2197,9.2227,9.2321,9.2358,9.243,9.2519,9.2625,9.2692,9.2793,9.2948,9.2974,9.3014,9.3027,9.3036,9.305,9.314,9.316,9.2947,9.2947,9.2947,0,0,9.1652,9.1786,9.1794,9.1948,9.2039,9.2153,9.2226,9.2238,9.2336,9.233,9.2381,9.2407,9.2549,9.2602,9.2536,9.2778,9.2731,9.2748,9.2737,9.2754,9.2766,9.2749,9.2515,0,0,0,0,0,9.1658,9.177,9.1776,9.1812,9.2009,9.215,9.2176,9.2223,9.2191,9.2249,9.2311,9.231,9.2578,9.2522,9.2555,9.2627,9.2891,9.2901,9.291,9.2934,9.295,9.2964,0,0,0,0,0,0,9.1673,9.1717,9.1773,9.1891,9.1936,9.2147,9.2103,9.2119,9.2186,9.2184,9.2298,9.2314,9.2354,9.2507,9.2537,9.2604,9.2505,9.2895,9.2903,9.2911,9.2939,9.2953,9.2964,0,0,0,0,0,9.1685,9.172,9.2024,9.189,9.1929,9.2019,9.2099,9.2112,9.2164,9.226,9.2275,9.2194,9.2355,9.2383,9.2525,9.259,9.2485,9.2496,9.29,9.2907,9.2913,9.2946,0,0,0,0,0,0,9.1694,9.1732,9.2033,9.2046,9.1851,9.2008,9.2035,9.2106,9.2236,9.2253,9.2157,9.2154,9.2357,9.2378,9.24,9.2582,9.2468,9.248,9.2486,9.2905,9.2911,9.2915,0,0,0,0,0,0,9.1714,9.1744,9.2039,9.1987,9.1995,9.1998,9.2022,9.2147,9.2237,9.2126,9.2128,9.2154,9.2323,9.2375,9.2392,9.2586,9.2456,9.2466,9.2474,9.2478,9.291,9.2914,0,0,0,0,0,0,9.1727,9.1753,9.1984,9.199,9.1997,9.2152,9.211,9.2307,9.2195,9.212,9.2186,9.2182,9.2321,9.2338,9.2387,9.2574,9.2583,9.2456,9.2463,9.2468,9.2472,0,0,0,0,0,0,0,9.1738,9.1554,9.1953,9.1993,9.1998,9.2171,9.2175,9.2179,9.2195,9.2191,9.2187,9.2184,9.2395,9.2407,9.2419,9.2564,0,0,9.2455,9.246,0,0,0,0,0,0,0,0,9.1544,9.1552,9.1953,9.1956,9.1959,9.2172,9.2175,9.2178,9.2194,9.2191,9.2188,9.2185,9.2398,9.2408,9.2417,0,0,0,0,0,0,0,0,0,0,0,0,0,0,0,9.1953,9.1956,0,9.2172,9.2175,9.2177,9.2194,9.2191,9.2189,9.2187,9.2401,9.2409,9.2417,0,0,0,0,0,0,0,0,0,0,0,0,0,0,0,0,0,0,0,0,0,0,0,0,0,0,0,0,0,0,0,0,0,0,0,0,0,0,0,0,0,0,0,0,0,0,0,0,0,0,0,0,0,0,0,0,0,0,0,0,0,0,0,0,0,0,0,0,0]}]]]